Wind_Speed
9 11 13 14 6 7 18 11 9 6 3 12 13 12 20 17 10 9 15 33 31 26 26 22 21 22 21 20 18 17 16 15 13 12 13 13 12 11 10 10 10 10 10 10 10 11 10 10 11
8 17 15 6 8 12 13 10 5 12 14 10 10 4 15 18 15 14 16 28 27 24 24 24 22 22 21 19 18 18 16 14 12 12 13 13 12 11 10 9 9 9 9 9 9 8 8 7 7
10 13 7 6 12 15 5 10 11 15 8 5 5 11 15 12 17 11 24 26 26 24 22 25 23 22 20 19 19 18 16 14 12 12 13 12 11 10 9 9 9 8 7 7 6 6 5 5 5
10 13 6 8 19 15 9 13 12 11 6 7 7 14 8 14 8 16 24 25 26 23 21 25 23 22 21 20 19 18 16 14 13 13 13 12 10 9 9 9 8 7 6 3 3 3 3 2 3
16 7 12 16 19 9 7 11 4 9 7 2 4 16 12 15 20 23 24 24 25 24 21 24 22 21 22 21 20 18 16 15 14 14 12 11 10 9 8 9 8 7 6 1 1 1 0 1 2
8 11 12 15 17 8 1 3 6 10 11 5 3 17 11 18 19 21 22 22 23 26 22 26 23 21 21 20 19 18 16 15 14 13 13 11 10 9 9 8 8 7 5 3 1 1 1 2 3
12 11 17 21 3 5 6 4 8 9 12 7 4 6 12 16 20 21 22 22 23 23 22 28 25 22 21 19 19 17 16 15 14 13 11 10 10 9 8 8 7 7 6 5 4 3 3 4 4
10 10 19 18 4 4 9 2 8 12 13 7 4 5 15 18 22 21 21 23 23 22 22 26 25 25 22 20 19 17 16 14 13 12 11 10 9 8 7 7 7 6 6 5 5 4 4 4 4
10 10 14 13 5 6 10 4 5 8 2 7 5 14 22 26 24 22 21 21 21 21 25 24 23 22 22 20 19 18 16 15 14 12 11 10 9 8 9 7 8 5 7 7 6 6 6 6 7
9 10 15 13 13 7 8 4 6 5 8 6 10 12 19 24 24 21 20 21 22 22 25 26 24 24 21 18 19 19 18 18 16 14 13 12 12 9 12 10 8 7 7 8 7 6 6 8 9
12 13 15 12 7 8 6 6 11 7 13 13 15 16 18 20 19 20 21 22 23 24 24 27 27 26 24 22 23 20 17 17 15 13 14 11 13 11 7 8 11 8 8 10 9 6 4 6 10
14 16 13 13 6 5 9 8 12 10 13 9 7 20 18 17 16 19 21 24 24 26 25 25 27 28 27 21 26 22 22 19 19 21 20 12 10 8 12 17 14 7 7 5 15 10 5 5 8
15 13 16 9 11 8 10 13 13 12 14 13 4 13 16 15 16 21 24 28 28 26 26 26 25 28 28 21 23 23 23 21 20 17 22 16 10 14 12 7 11 9 7 6 5 5 6 7 7
15 11 13 15 12 12 12 13 14 16 15 15 11 9 10 15 16 19 21 21 29 28 27 27 26 26 28 19 22 22 19 22 24 17 20 17 15 12 12 10 7 6 7 4 3 3 6 8 7
18 18 16 15 16 16 15 18 19 17 17 18 15 12 11 14 18 19 22 23 28 30 28 26 27 25 27 20 19 22 20 18 14 17 16 16 14 12 12 8 7 4 3 4 1 3 4 6 9
16 16 17 19 20 20 17 20 19 20 20 19 15 15 12 16 17 21 22 24 26 33 33 28 25 27 27 26 22 24 18 19 19 17 17 16 14 10 10 8 7 6 5 3 1 2 5 8 9
15 17 21 22 21 20 24 20 21 21 16 16 14 15 15 15 17 22 23 23 26 36 38 34 28 28 28 26 22 21 22 20 21 18 16 14 12 12 10 9 8 7 5 3 1 3 7 7 10
16 19 20 22 20 23 19 20 19 20 12 11 12 12 12 13 17 23 26 24 27 36 39 39 34 29 28 25 24 22 23 20 17 15 15 15 14 12 11 12 9 7 4 4 3 4 5 7 9
21 21 23 23 21 22 18 19 19 17 17 16 14 13 13 13 13 20 27 30 23 33 35 38 36 33 31 28 28 25 22 22 18 18 17 17 16 15 13 11 8 5 5 6 5 3 7 6 9
24 25 26 23 25 22 18 21 17 16 17 18 14 15 17 15 13 12 12 23 26 29 34 36 35 35 34 28 27 24 23 22 20 18 19 17 17 16 10 12 9 8 7 6 3 3 5 6 10
25 25 20 23 21 23 22 24 23 22 20 17 16 15 17 18 15 14 13 16 23 25 29 35 36 35 34 31 27 26 24 22 22 23 21 20 17 15 13 12 11 11 8 9 5 2 5 7 7
25 23 24 24 20 18 19 20 21 21 23 23 21 20 19 19 18 14 11 18 29 28 24 31 35 38 36 35 30 30 29 25 23 24 21 20 18 16 16 14 13 10 8 8 5 5 3 6 9
27 20 25 24 20 21 27 17 18 16 21 20 19 25 20 23 20 18 16 20 33 33 30 32 33 39 37 40 31 31 27 24 26 25 24 21 19 19 16 14 12 11 9 7 3 1 2 4 7
24 24 23 22 17 18 33 18 24 18 19 18 23 20 19 14 13 16 17 19 33 34 32 30 33 33 36 40 35 34 32 28 28 27 28 24 21 19 17 15 13 10 7 5 3 1 2 4 6
27 23 17 16 17 20 24 20 26 15 17 25 30 19 19 18 13 15 14 12 21 32 34 31 32 32 33 37 36 37 32 32 32 32 27 26 23 21 19 16 13 9 7 4 2 2 4 5 7
23 23 18 25 20 20 23 24 27 19 20 25 24 18 11 13 8 8 14 9 12 32 33 33 33 30 32 35 36 37 33 32 31 30 28 26 24 23 21 15 12 8 5 4 2 2 3 5 6
30 24 19 20 20 17 16 22 27 27 28 24 23 9 10 8 9 12 11 8 12 31 31 32 32 28 27 32 31 34 33 33 31 30 28 25 24 25 21 15 12 9 6 5 2 1 4 6 7
31 20 17 7 10 26 21 30 20 15 18 18 21 14 13 12 10 9 10 11 16 30 31 30 34 31 25 23 33 32 38 35 35 30 30 28 24 21 19 15 13 10 7 4 2 2 3 5 8
21 23 23 9 14 6 15 18 20 23 22 27 20 18 17 14 10 9 8 11 18 32 29 28 29 35 29 25 31 35 36 34 34 33 28 28 24 20 19 16 13 10 7 4 2 0 2 3 5
28 25 28 15 24 22 17 17 21 23 23 20 17 9 11 10 8 7 8 9 26 28 29 28 28 30 34 35 35 36 36 36 34 30 27 25 23 20 18 15 12 10 7 5 3 2 2 4 7
Wind_Direction
281 265 257 257 246 233 254 245 71 104 64 48 60 32 76 52 32 112 172 119 128 140 146 145 142 144 146 152 153 153 150 150 146 139 140 134 126 119 109 102 99 98 93 88 86 89 90 88 82
282 285 249 275 245 252 246 128 135 92 78 83 79 78 76 71 90 105 116 125 133 145 142 147 147 150 152 157 157 155 154 154 153 148 144 139 132 123 113 106 102 99 96 95 95 98 97 93 73
291 275 268 234 231 255 333 106 134 89 96 137 144 93 45 106 131 129 131 135 139 144 148 151 151 155 158 161 161 159 159 159 156 153 148 143 137 130 121 114 110 103 101 101 100 102 101 88 63
257 231 242 248 257 242 31 61 89 101 147 196 129 100 91 88 110 132 142 142 141 148 156 154 155 157 160 164 165 164 164 162 159 156 151 146 141 134 127 117 105 111 113 101 105 108 92 59 35
246 269 251 269 260 65 35 28 89 158 168 214 106 81 93 88 106 134 144 145 143 150 161 160 160 161 163 167 170 168 168 166 162 157 153 149 146 142 140 137 132 135 154 164 153 127 122 324 328
266 244 269 262 240 84 41 102 238 215 128 176 155 130 111 124 130 142 147 145 150 150 157 166 166 167 168 170 173 174 172 169 164 160 158 155 152 153 157 160 164 172 180 187 174 245 282 292 302
261 283 275 290 88 122 182 160 244 229 135 140 263 117 131 149 140 150 148 147 149 151 156 169 170 172 174 176 178 179 175 171 168 167 166 162 163 164 168 173 179 182 189 203 216 234 261 276 291
263 289 284 277 302 241 116 165 240 265 160 202 185 138 156 136 146 149 145 145 144 144 160 171 173 175 179 180 182 180 178 175 174 176 174 175 174 174 179 184 189 194 202 213 227 235 251 270 281
276 270 262 265 265 98 105 222 205 297 138 136 167 41 122 141 148 147 148 149 140 149 164 170 173 178 180 183 184 181 181 182 184 186 188 190 191 187 181 188 209 218 219 221 233 250 267 278 267
217 254 281 357 5 17 76 292 203 234 279 171 104 95 126 147 153 158 160 165 163 169 168 173 176 176 179 176 187 184 188 190 191 196 199 202 195 223 204 202 211 235 230 233 238 256 278 276 282
248 254 289 330 353 341 307 202 265 243 231 234 185 170 154 165 168 170 175 177 175 176 176 177 179 180 180 184 190 187 191 193 195 201 207 216 220 191 177 223 224 224 223 231 221 233 281 319 301
255 264 274 296 337 285 278 288 265 236 271 291 332 178 157 175 179 182 184 176 177 178 182 179 180 181 183 192 185 183 188 195 198 208 211 210 198 207 227 227 219 203 215 249 240 253 270 266 283
263 265 284 273 279 268 280 274 281 280 266 279 159 136 164 185 194 194 191 176 176 181 182 184 188 184 187 198 174 179 194 199 200 210 208 209 213 225 228 209 172 188 194 220 213 231 241 267 280
280 274 276 278 255 262 245 259 262 256 264 276 254 208 197 192 203 207 196 188 171 177 182 182 190 182 184 186 187 182 192 196 206 211 203 196 220 219 204 209 199 205 210 191 215 280 299 298 290
261 268 266 256 264 252 248 252 243 256 253 239 243 213 221 234 214 214 203 194 176 171 173 179 190 193 195 187 189 191 197 192 201 201 213 213 215 221 224 205 215 201 258 256 277 276 261 277 280
268 262 258 253 249 238 240 256 254 242 232 240 226 235 219 223 230 224 216 207 190 164 165 176 189 194 194 192 192 192 196 198 198 193 178 190 204 211 189 180 195 199 177 179 186 313 314 328 338
252 255 257 256 243 246 218 235 256 264 229 220 218 234 225 227 216 223 229 217 196 167 165 172 183 191 193 193 190 188 197 197 187 192 192 199 191 189 175 166 160 183 164 165 161 28 13 350 333
234 247 250 250 262 276 228 235 249 266 248 232 246 251 249 233 235 215 214 234 198 170 166 169 174 186 191 193 188 195 189 187 180 176 174 170 169 165 157 162 177 152 161 115 83 27 356 333 333
263 261 264 264 252 234 248 234 237 239 247 222 225 243 241 244 259 243 212 211 204 171 166 165 170 181 185 194 182 181 170 172 164 166 181 168 168 159 162 169 159 136 123 74 64 22 1 340 342
240 247 257 272 279 286 277 270 246 238 246 261 242 226 226 226 244 240 267 195 197 168 169 167 171 177 183 183 182 175 166 165 166 174 166 168 164 165 162 149 145 118 142 137 104 62 11 345 14
249 250 252 257 267 277 279 263 258 255 249 252 265 264 261 265 224 236 207 217 181 183 172 171 174 178 178 188 174 171 170 168 167 165 168 166 166 156 162 149 156 155 124 144 130 75 35 351 346
249 246 254 258 262 258 261 268 241 242 241 238 234 240 249 253 260 238 233 189 177 187 192 179 178 176 179 184 177 175 171 171 170 165 165 164 164 158 151 157 151 149 148 134 108 69 36 353 338
243 254 268 273 250 259 255 256 262 264 263 267 242 225 234 233 236 240 231 211 184 181 190 190 185 173 175 179 181 175 173 172 168 166 167 163 161 159 158 154 152 145 141 140 120 37 347 335 338
264 262 246 254 260 251 252 243 265 247 253 253 245 234 220 238 217 232 242 235 181 178 185 187 174 172 177 181 179 174 176 173 164 166 157 162 163 161 161 159 155 154 148 141 142 245 311 315 314
246 251 255 237 236 242 251 242 257 243 246 255 248 262 211 221 222 215 214 228 185 172 177 171 167 178 181 182 179 177 180 178 171 160 161 163 167 167 163 162 161 159 158 159 203 253 283 299 300
249 237 234 246 238 249 242 244 244 253 252 253 258 251 196 199 207 247 213 206 176 169 173 169 177 180 186 183 178 179 182 175 166 162 168 169 169 169 164 161 161 163 164 186 224 251 291 312 324
250 252 252 273 257 272 271 262 249 241 239 244 254 225 164 183 206 227 212 178 170 169 171 161 165 173 180 183 177 177 176 164 163 167 170 167 164 157 157 161 157 165 164 176 203 267 303 320 319
233 240 252 226 244 243 255 265 261 265 272 265 269 208 202 200 207 229 246 179 166 164 158 158 162 164 181 175 172 170 166 165 167 168 159 157 151 157 157 157 159 160 166 176 197 270 317 321 315
233 236 236 193 222 256 247 255 256 275 260 257 273 251 198 196 200 218 226 146 141 139 154 154 156 160 172 178 173 169 170 170 165 152 154 155 153 152 155 160 162 162 168 167 157 299 336 310 305
263 263 230 217 217 220 230 258 262 283 296 304 300 299 176 177 193 210 163 140 139 144 154 160 165 165 177 177 174 172 172 156 154 149 155 153 155 156 158 160 161 159 157 155 148 98 326 327 311
Height
771 769 768 766 781 765 756 734 707 724 725 712 713 727 742 746 756 789 765 769 777 783 785 788 791 795 799 803 806 808 811 813 815 817 819 821 823 824 826 827 828 829 830 831 832 832 833 834 834
770 769 765 760 780 772 743 712 728 722 719 715 723 727 736 761 749 758 765 771 778 783 785 788 791 796 800 804 806 809 812 815 816 818 820 822 824 826 827 829 830 831 832 832 833 834 834 835 835
770 767 766 766 765 766 743 718 719 721 721 724 730 727 739 757 754 759 767 772 779 784 787 788 792 797 801 805 807 810 813 815 818 820 822 824 826 827 829 830 831 833 834 834 835 835 836 835 836
767 762 760 769 758 729 727 720 716 725 724 721 723 746 744 747 753 762 768 773 779 784 787 790 794 797 802 806 809 811 814 816 818 821 823 825 828 829 830 832 833 834 836 836 836 836 837 837 837
762 756 768 764 743 726 720 718 721 730 731 729 728 753 756 754 759 765 769 774 778 784 787 793 797 800 802 806 809 812 815 817 819 822 824 826 828 830 831 832 833 835 835 836 836 836 837 837 837
763 752 769 761 735 724 724 722 723 724 727 729 735 743 754 755 761 766 770 774 779 781 787 792 797 802 805 807 811 814 816 819 821 823 825 827 829 830 831 832 833 834 835 836 836 837 837 837 837
764 760 762 746 735 735 730 724 731 725 731 735 728 746 751 752 760 765 769 774 779 780 786 791 796 801 805 809 812 815 818 820 823 825 827 827 828 829 830 831 832 833 834 835 836 836 837 836 836
755 758 763 742 737 742 726 729 725 725 730 721 727 744 757 749 758 765 769 774 779 781 786 791 795 799 805 808 811 815 818 821 824 826 827 828 829 830 831 832 833 833 834 834 835 835 835 835 835
752 773 764 742 738 734 728 738 726 720 726 728 732 735 739 750 757 764 770 775 779 783 787 791 795 799 802 806 811 815 818 820 823 825 827 828 828 829 829 831 832 833 834 834 834 834 834 834 834
758 765 752 730 725 731 731 737 731 738 737 735 737 742 750 754 757 763 767 772 777 782 786 789 793 796 802 806 809 813 816 818 821 823 825 826 828 829 829 831 832 832 833 834 834 833 833 833 833
750 762 743 736 731 728 733 735 730 737 745 734 737 739 744 753 757 761 766 769 774 779 784 787 790 794 799 803 805 810 814 817 819 822 823 825 827 828 829 830 829 830 831 831 832 833 833 833 833
758 742 740 737 731 737 742 731 736 734 733 721 722 726 739 747 750 756 760 766 771 776 780 784 788 791 796 800 802 806 811 814 817 819 821 824 825 826 827 828 828 828 830 830 831 832 833 833 833
748 742 738 733 735 737 737 741 738 735 724 720 724 732 738 744 747 750 753 758 766 772 777 781 786 789 793 798 799 802 807 811 814 816 818 820 823 824 825 827 826 828 829 830 831 831 832 832 831
740 739 739 735 736 735 743 741 738 732 726 724 725 729 733 737 741 744 747 751 758 767 773 778 783 786 790 793 796 800 804 806 811 813 815 818 821 822 823 824 826 828 828 829 830 830 830 831 830
742 754 745 742 737 738 732 744 741 726 722 724 725 725 729 733 734 737 740 744 750 759 770 776 781 785 788 791 795 798 802 804 807 809 813 816 818 822 824 823 826 827 827 827 829 829 829 829 828
754 750 763 740 734 731 738 755 728 714 719 721 720 722 725 728 729 731 734 737 742 749 760 772 780 782 785 789 792 795 800 802 805 807 808 812 815 819 821 822 824 826 826 826 827 828 828 827 827
756 767 757 744 723 724 727 742 724 710 705 714 716 717 718 720 721 725 728 731 735 741 750 761 772 780 783 787 789 794 797 800 802 803 806 810 814 815 818 820 823 824 825 826 826 826 827 828 828
769 759 746 744 728 717 723 727 719 712 710 713 713 712 712 713 713 715 720 725 728 735 740 751 761 774 780 784 787 791 793 796 798 802 804 808 811 814 817 819 821 823 825 824 826 828 828 829 828
745 744 743 725 711 717 719 721 715 708 706 710 711 711 710 710 708 708 711 716 722 728 738 745 755 764 774 778 780 785 788 793 797 801 803 807 810 813 816 817 820 822 823 825 827 828 829 829 827
741 746 741 729 714 715 713 714 704 703 705 704 702 703 704 703 703 704 707 711 715 723 731 739 748 758 766 772 777 781 785 790 795 799 802 805 808 810 814 816 819 821 822 824 827 828 828 829 828
736 736 735 738 725 716 717 718 712 700 697 697 696 695 695 697 697 698 701 707 713 718 725 732 741 751 758 767 773 779 785 789 793 797 801 803 806 810 812 815 816 819 821 823 826 827 828 829 829
737 720 724 728 735 748 720 738 706 701 697 691 692 692 691 691 689 690 692 697 704 713 721 728 734 744 752 762 768 770 775 781 788 793 798 802 805 808 811 813 816 819 820 822 825 826 828 829 829
724 720 723 721 727 733 725 737 704 696 698 689 680 680 682 681 681 684 683 687 695 703 713 722 728 738 747 754 762 766 772 778 784 790 795 801 804 806 809 813 816 819 820 821 824 825 826 827 827
709 715 714 717 723 742 709 727 700 699 691 682 672 667 667 670 673 675 677 681 686 696 707 716 724 734 741 748 755 760 766 773 778 784 790 797 802 805 808 812 815 817 818 820 822 823 824 825 825
712 724 742 745 739 730 702 719 695 680 675 667 663 659 657 661 665 667 670 675 680 691 700 709 719 731 738 744 749 756 762 768 774 779 786 792 799 802 805 809 812 815 817 818 819 820 822 823 823
717 712 737 749 736 719 697 719 679 666 660 654 652 648 647 657 660 662 662 667 674 685 693 702 712 724 732 740 745 751 758 763 769 776 782 789 794 799 803 806 809 812 814 816 818 819 820 821 820
707 723 701 721 719 730 705 680 657 654 653 650 648 644 651 653 653 655 656 660 669 679 689 696 707 719 731 736 741 747 752 758 765 773 780 785 791 795 800 804 806 809 812 814 816 817 818 818 818
702 699 724 719 758 755 726 698 684 670 655 648 644 642 643 644 649 651 652 654 662 674 688 695 700 712 729 732 737 743 750 756 763 768 775 780 787 791 796 801 804 807 810 812 813 814 815 815 816
702 702 702 714 745 752 744 706 668 667 651 649 641 630 632 637 644 648 649 650 659 673 686 694 701 705 723 733 737 741 749 753 760 763 772 776 784 788 794 798 802 805 807 809 810 811 812 813 815
684 687 688 710 724 717 723 693 650 648 647 645 641 627 623 629 637 642 645 650 663 674 684 692 700 704 716 725 734 742 746 750 757 760 772 775 783 788 792 796 799 802 804 806 807 810 811 813 814